Location: Oshawa
(43.9000°N, 78.8670°W)
Time: 22:54:07
(UTC-04:00)

ELECTRON R/B - Visible Passes

Search period start: 20 May 2018 00:00
Search period end: 30 May 2018 00:00
Orbit: 285 x 480 km, 82.9° (Epoch: 20 May)

Date Brightness Start Highest point End Pass type
(mag) Time Alt. Az. Time Alt. Az. Time Alt. Az.
20 May 6.0 22:37:00 10° NNW 22:39:10 28° W 22:39:49 24° WSW visible
21 May 5.4 21:40:37 10° NNE 21:42:50 29° ENE 21:44:07 18° SE visible
22 May 5.9 22:16:58 10° NNW 22:19:12 33° W 22:20:39 17° SSW visible
23 May 5.6 21:20:35 10° NNE 21:22:41 25° ENE 21:24:48 10° SE visible
24 May 5.5 21:56:36 10° NNW 21:58:56 40° W 22:01:17 10° SSW visible
26 May 5.2 21:35:57 10° NNW 21:38:20 51° W 21:40:47 10° S visible
29 May 7.6 21:51:59 10° WNW 21:53:06 12° W 21:54:13 10° WSW visible
